• In Portugal
  • List of Countries
  • For 7 days
  • Water Temperature
  • Satellite Maps
  • Weather Map
  • Weather Widgets
  • user-avatar
    Login

    Hourly Weather Satif

    Today, 24 April, Tuesday

    Time Temperature Precipitation Wind Pressure Humidity
    00:00 +18°C° 0 mm 2 mps 673 mmHg 51%
    01:00 +17°C° 0 mm 2 mps 672 mmHg 49%
    02:00 +17°C° 0 mm 2 mps 672 mmHg 47%
    03:00 +16°C° 0 mm 2 mps 672 mmHg 45%
    04:00 +17°C° 0 mm 2 mps 672 mmHg 45%
    05:00 +17°C° 0 mm 2 mps 673 mmHg 45%
    06:00 +18°C° 0 mm 2 mps 673 mmHg 46%
    07:00 +20°C° 0 mm 3 mps 674 mmHg 41%
    08:00 +21°C° 0 mm 3 mps 674 mmHg 37%
    09:00 +23°C° 0 mm 4 mps 675 mmHg 32%
    10:00 +25°C° 0 mm 4 mps 675 mmHg 29%
    11:00 +26°C° 0 mm 5 mps 675 mmHg 26%
    12:00 +27°C° 0 mm 5 mps 675 mmHg 23%
    13:00 +27°C° 0 mm 5 mps 675 mmHg 23%
    14:00 +27°C° 0 mm 6 mps 674 mmHg 23%
    15:00 +27°C° 0 mm 6 mps 674 mmHg 24%
    16:00 +26°C° 0 mm 5 mps 673 mmHg 28%
    17:00 +23°C° 0 mm 4 mps 673 mmHg 33%
    18:00 +22°C° 0 mm 4 mps 672 mmHg 38%
    19:00 +21°C° 0 mm 3 mps 672 mmHg 38%
    20:00 +20°C° 0 mm 3 mps 672 mmHg 38%
    21:00 +19°C° 0 mm 3 mps 672 mmHg 38%
    22:00 +19°C° 0.1 mm 3 mps 672 mmHg 38%
    23:00 +19°C° 0.1 mm 3 mps 671 mmHg 39%

    Tomorrow, 25 April, Wednesday

    Time Temperature Precipitation Wind Pressure Humidity
    00:00 +18°C° 0.1 mm 3 mps 671 mmHg 39%
    01:00 +18°C° 0.2 mm 3 mps 671 mmHg 40%
    02:00 +18°C° 0.2 mm 3 mps 671 mmHg 42%
    03:00 +17°C° 0.2 mm 3 mps 670 mmHg 43%
    04:00 +17°C° 0.6 mm 3 mps 670 mmHg 46%
    05:00 +17°C° 0.6 mm 2 mps 671 mmHg 50%
    06:00 +17°C° 0.6 mm 2 mps 671 mmHg 53%
    07:00 +19°C° 0.3 mm 3 mps 672 mmHg 48%
    08:00 +21°C° 0.3 mm 3 mps 672 mmHg 43%
    09:00 +22°C° 0.3 mm 4 mps 673 mmHg 37%
    10:00 +22°C° 0.2 mm 4 mps 673 mmHg 40%
    11:00 +22°C° 0.2 mm 3 mps 673 mmHg 42%
    12:00 +22°C° 0.2 mm 3 mps 673 mmHg 45%
    13:00 +21°C° 0.9 mm 3 mps 672 mmHg 50%
    14:00 +20°C° 0.9 mm 3 mps 672 mmHg 56%
    15:00 +19°C° 0.9 mm 2 mps 671 mmHg 62%
    16:00 +18°C° 0.5 mm 3 mps 671 mmHg 66%
    17:00 +18°C° 0.5 mm 4 mps 671 mmHg 69%
    18:00 +17°C° 0.5 mm 4 mps 670 mmHg 72%
    19:00 +17°C° 0.4 mm 4 mps 670 mmHg 74%
    20:00 +15°C° 0.4 mm 4 mps 670 mmHg 76%
    21:00 +14°C° 0.4 mm 3 mps 670 mmHg 77%
    22:00 +14°C° 0.2 mm 3 mps 669 mmHg 79%
    23:00 +13°C° 0.2 mm 3 mps 669 mmHg 80%

    Day after tomorrow, 26 April, Thursday

    Time Temperature Precipitation Wind Pressure Humidity
    00:00 +13°C° 0.2 mm 3 mps 668 mmHg 81%
    01:00 +13°C° 0.2 mm 3 mps 668 mmHg 83%
    02:00 +12°C° 0.2 mm 3 mps 667 mmHg 86%
    03:00 +12°C° 0.2 mm 3 mps 667 mmHg 88%
    04:00 +12°C° 0 mm 3 mps 666 mmHg 88%
    05:00 +12°C° 0 mm 3 mps 666 mmHg 89%
    06:00 +12°C° 0 mm 3 mps 666 mmHg 90%
    07:00 +13°C° 0 mm 3 mps 666 mmHg 82%
    08:00 +14°C° 0 mm 3 mps 667 mmHg 74%
    09:00 +17°C° 0 mm 4 mps 667 mmHg 67%
    10:00 +18°C° 0 mm 4 mps 667 mmHg 62%
    11:00 +19°C° 0 mm 3 mps 667 mmHg 57%
    12:00 +20°C° 0 mm 3 mps 667 mmHg 53%
    13:00 +20°C° 0.5 mm 4 mps 667 mmHg 56%
    14:00 +19°C° 0.5 mm 4 mps 666 mmHg 60%
    15:00 +19°C° 0.5 mm 5 mps 666 mmHg 63%
    16:00 +17°C° 1.1 mm 5 mps 666 mmHg 70%
    17:00 +15°C° 1.1 mm 5 mps 666 mmHg 77%
    18:00 +14°C° 1.1 mm 5 mps 665 mmHg 83%
    19:00 +14°C° 0.5 mm 4 mps 666 mmHg 85%
    20:00 +13°C° 0.5 mm 4 mps 666 mmHg 86%
    21:00 +12°C° 0.5 mm 4 mps 667 mmHg 88%
    22:00 +12°C° 0.2 mm 4 mps 667 mmHg 88%
    23:00 +12°C° 0.2 mm 4 mps 667 mmHg 89%

    27 April, Friday

    Time Temperature Precipitation Wind Pressure Humidity
    00:00 +12°C° 0.2 mm 4 mps 666 mmHg 89%
    01:00 +12°C° 0.1 mm 4 mps 666 mmHg 89%
    02:00 +12°C° 0.1 mm 4 mps 666 mmHg 89%
    03:00 +12°C° 0.1 mm 4 mps 666 mmHg 89%
    04:00 +12°C° 0.1 mm 4 mps 666 mmHg 89%
    05:00 +12°C° 0.1 mm 4 mps 666 mmHg 88%
    06:00 +11°C° 0.1 mm 4 mps 667 mmHg 87%
    07:00 +12°C° 0.1 mm 4 mps 667 mmHg 83%
    08:00 +12°C° 0.1 mm 4 mps 667 mmHg 79%
    09:00 +13°C° 0.1 mm 4 mps 668 mmHg 75%
    10:00 +13°C° 0.1 mm 5 mps 668 mmHg 73%
    11:00 +14°C° 0.1 mm 5 mps 668 mmHg 71%
    12:00 +14°C° 0.1 mm 5 mps 668 mmHg 69%
    13:00 +14°C° 0 mm 5 mps 668 mmHg 69%
    14:00 +14°C° 0 mm 5 mps 668 mmHg 70%
    15:00 +14°C° 0 mm 5 mps 668 mmHg 70%
    16:00 +13°C° 0 mm 5 mps 668 mmHg 72%
    17:00 +13°C° 0 mm 4 mps 668 mmHg 73%
    18:00 +12°C° 0 mm 4 mps 669 mmHg 75%
    19:00 +11°C° 0 mm 3 mps 669 mmHg 79%
    20:00 +10°C° 0 mm 3 mps 669 mmHg 83%
    21:00 +9°C° 0 mm 2 mps 669 mmHg 87%
    22:00 +9°C° 0 mm 2 mps 669 mmHg 87%
    23:00 +8°C° 0 mm 2 mps 669 mmHg 87%

    28 April, Saturday

    Time Temperature Precipitation Wind Pressure Humidity
    00:00 +9°C° 0 mm 1 mps 669 mmHg 88%
    01:00 +9°C° 0 mm 1 mps 669 mmHg 87%
    02:00 +9°C° 0 mm 1 mps 668 mmHg 87%
    03:00 +8°C° 0 mm 1 mps 668 mmHg 86%
    04:00 +9°C° 0 mm 1 mps 669 mmHg 84%
    05:00 +10°C° 0 mm 1 mps 669 mmHg 81%
    06:00 +10°C° 0 mm 1 mps 669 mmHg 78%
    07:00 +12°C° 0 mm 1 mps 670 mmHg 70%
    08:00 +14°C° 0 mm 1 mps 671 mmHg 61%
    09:00 +16°C° 0 mm 1 mps 671 mmHg 53%
    10:00 +17°C° 0 mm 2 mps 671 mmHg 49%
    11:00 +18°C° 0 mm 2 mps 671 mmHg 45%
    12:00 +19°C° 0 mm 2 mps 672 mmHg 42%
    13:00 +20°C° 0 mm 2 mps 671 mmHg 41%
    14:00 +21°C° 0 mm 1 mps 671 mmHg 41%
    15:00 +21°C° 0 mm 1 mps 671 mmHg 41%
    16:00 +21°C° 0 mm 1 mps 671 mmHg 45%
    17:00 +19°C° 0 mm 2 mps 671 mmHg 50%
    18:00 +18°C° 0 mm 2 mps 671 mmHg 55%
    19:00 +18°C° 0 mm 1 mps 671 mmHg 59%
    20:00 +16°C° 0 mm 1 mps 671 mmHg 64%
    21:00 +15°C° 0 mm 1 mps 671 mmHg 69%
    22:00 +15°C° 0 mm 1 mps 670 mmHg 68%
    23:00 +14°C° 0 mm 1 mps 670 mmHg 68%

    29 April, Sunday

    Time Temperature Precipitation Wind Pressure Humidity
    00:00 +14°C° 0 mm 1 mps 670 mmHg 67%
    01:00 +14°C° 0 mm 1 mps 670 mmHg 65%
    02:00 +14°C° 0 mm 1 mps 669 mmHg 63%
    03:00 +13°C° 0 mm 1 mps 669 mmHg 60%
    04:00 +14°C° 0 mm 1 mps 669 mmHg 57%
    05:00 +15°C° 0 mm 1 mps 670 mmHg 54%
    06:00 +15°C° 0 mm 2 mps 670 mmHg 50%
    07:00 +16°C° 0 mm 3 mps 671 mmHg 48%
    08:00 +17°C° 0 mm 3 mps 672 mmHg 47%
    09:00 +18°C° 0 mm 4 mps 672 mmHg 45%
    10:00 +19°C° 0 mm 4 mps 672 mmHg 43%
    11:00 +20°C° 0 mm 4 mps 672 mmHg 42%
    12:00 +20°C° 0 mm 4 mps 673 mmHg 40%
    13:00 +20°C° 0 mm 4 mps 673 mmHg 42%
    14:00 +20°C° 0 mm 4 mps 672 mmHg 45%
    15:00 +20°C° 0 mm 4 mps 672 mmHg 47%
    16:00 +18°C° 0 mm 4 mps 672 mmHg 54%
    17:00 +17°C° 0 mm 3 mps 672 mmHg 61%
    18:00 +16°C° 0 mm 3 mps 672 mmHg 68%
    19:00 +14°C° 0.1 mm 3 mps 673 mmHg 73%
    20:00 +13°C° 0.1 mm 3 mps 673 mmHg 79%
    21:00 +12°C° 0.1 mm 3 mps 673 mmHg 85%
    22:00 +12°C° 0.1 mm 2 mps 673 mmHg 86%
    23:00 +12°C° 0.1 mm 2 mps 673 mmHg 86%
    Show more